Location: Drachten
(53.1125°N, 6.0989°E)
Time: 18:10:28
(UTC+00:00)

Daily predictions for brighter satellites

Satellite Brightness Start Highest point End
(mag) Time Altitude Azimuth Time Altitude Azimuth Time Altitude Azimuth
USA 215 3.6 16:51:47 10° SE 16:58:20 73° SSW 17:04:55 10° WNW
Cosmos 1763 Rocket 3.4 16:56:06 10° NNW 17:01:19 72° ENE 17:06:25 10° SSE
ATLAS 2AS CENTAUR R/B 3.0 16:54:23 10° NW 17:01:31 79° SW 17:08:13 10° SE
Cosmos 1607 4.0 16:57:07 10° SW 17:03:15 89° NW 17:09:31 10° NE
Cosmos 2058 Rocket 4.1 17:01:27 10° N 17:05:04 24° ENE 17:08:41 10° ESE
BREEZE-M DEB (TANK) 3.8 17:03:45 10° SW 17:06:29 31° SSE 17:11:26 10° ESE
Cosmos 1869 4.3 17:04:29 10° NNE 17:07:44 24° ENE 17:10:59 10° SE
Cosmos 540 Rocket 3.5 17:04:29 10° NNW 17:09:37 58° ENE 17:14:40 10° SE
COSMOS 2455 3.3 17:04:14 10° SW 17:10:13 65° NW 17:16:15 10° NE
YAOGAN 1 3.6 17:06:58 10° ESE 17:10:31 26° ENE 17:14:05 10° N
Cosmos 1844 Rocket 2.6 17:06:42 10° NNW 17:12:19 75° ENE 17:17:52 10° SE
Cosmos 841 Rocket 3.9 17:10:40 10° NNW 17:15:43 44° NE 17:20:44 10° SE
APEX 4.2 17:10:26 10° SSW 17:16:24 68° ESE 17:21:47 10° NE
ATLAS CENTAUR R/B 2.1 17:12:09 10° WSW 17:16:46 59° NW 17:21:12 10° NE
Cosmos 2228 3.0 17:13:21 10° NNW 17:17:36 85° W 17:21:49 10° S
USA 281 3.5 17:12:06 10° NNE 17:18:40 74° WNW 17:25:13 10° SW
Cosmos 1536 Rocket 3.5 17:16:44 10° S 17:21:04 87° E 17:25:27 10° NNE
PSLV R/B 4.5 17:18:30 10° SE 17:21:43 29° ENE 17:25:01 10° N
Cosmos 2251 Rocket 4.1 17:22:23 10° SW 17:27:41 61° WNW 17:33:03 10° NNE
Cosmos 1892 2.7 17:24:41 10° S 17:28:21 58° E 17:32:05 10° NNE
Cosmos 1606 Rocket 3.4 17:24:42 10° N 17:29:02 74° ENE 17:33:22 10° SSE
CZ-4B R/B 3.6 17:25:54 10° SE 17:30:53 40° ENE 17:35:59 10° N
CZ-4B DEB 4.2 17:25:40 10° SSE 17:31:03 66° ENE 17:36:30 10° NNW
Cosmos 1825 2.6 17:27:56 10° SSE 17:31:23 39° E 17:34:52 10° NNE
Cosmos 1328 3.9 17:27:37 10° SSW 17:31:36 82° WNW 17:35:33 10° N
ADEOS 4.3 17:27:42 10° S 17:32:50 59° WSW 17:38:01 10° NNW
Lacrosse 5 rocket 1.5 17:30:53 10° WNW 17:34:25 60° SSW 17:38:02 10° SE
Cosmos 1844 3.8 17:28:56 10° NNW 17:34:47 90° WSW 17:40:34 10° SSE
CZ-4 R/B 4.3 17:31:06 10° SSE 17:35:12 74° ENE 17:39:21 10° N
SJ-6B 4.4 17:34:43 15° ENE 17:35:47 16° ENE 17:38:16 10° NNE
USA 290 4.2 17:34:15 10° WSW 17:37:06 28° NW 17:39:57 10° N
Meteor 1-11 4.3 17:33:17 10° S 17:39:00 63° E 17:44:43 10° NNE
Cosmos 2219 Rocket 3.4 17:35:39 10° SSE 17:39:43 21° E 17:42:36 14° ENE
Cosmos 2360 Rocket 2.6 17:35:24 10° S 17:40:39 42° ESE 17:45:57 10° NE
Lacrosse 4 Rocket 3.6 17:39:14 10° NNW 17:41:27 13° NNE 17:43:22 11° NE
Cosmos 2278 4.1 17:36:57 10° SW 17:42:36 66° NW 17:48:19 10° NNE
Nadezhda 2 Rocket 4.4 17:36:30 10° N 17:42:44 75° E 17:48:50 10° SSE
YAOGAN 3 4.5 17:39:30 10° SSE 17:43:48 69° ENE 17:48:10 10° N
IRIDIUM 103 4.5 17:39:43 10° N 17:44:49 50° E 17:49:53 10° SSE
Cosmos 1892 Rocket 3.8 17:41:41 10° SSE 17:45:52 44° E 17:50:03 10° NNE
Cosmos 407 Rocket 4.1 17:42:30 10° SW 17:47:33 57° WNW 17:52:37 10° NNE
Cosmos 1461 3.2 17:44:12 10° SSW 17:48:23 52° SE 17:51:43 17° NE
Cosmos 1340 2.7 17:44:55 10° N 17:48:32 51° ENE 17:52:07 10° SSE
COSMO-SKYMED 1 2.5 17:44:19 10° NNE 17:48:40 66° ESE 17:53:00 10° S
Cosmos 2278 Rocket 3.1 17:43:57 10° NNW 17:48:56 30° NE 17:52:12 18° E
Cosmos 676 Rocket 4.0 17:44:26 10° SSW 17:49:42 70° ESE 17:54:56 10° NNE
Cosmos 1140 Rocket 4.4 17:45:38 10° SW 17:50:38 47° NW 17:55:37 10° NNE
CZ-4C R/B 3.2 17:48:10 10° NNE 17:51:58 56° ESE 17:55:32 10° S
Cosmos 44 Rocket 4.4 17:48:59 10° SSE 17:52:41 23° ESE 17:54:11 20° E
ATLAS 5 CENTAUR R/B 3.2 17:49:40 10° NW 17:53:06 23° N 17:56:06 14° NE
Aureole 2 3.8 17:50:41 10° NNW 17:53:41 71° ENE 17:56:36 10° SSE
Cosmos 2322 Rocket 2.1 17:48:36 10° SSW 17:54:10 70° ESE 17:59:47 10° NE
BlueWalker 3 1.9 17:50:34 10° W 17:54:28 89° N 17:56:49 23° E
Cosmos 2333 Rocket 2.7 17:50:47 10° S 17:55:56 37° ESE 18:00:15 14° NE
USA 186 4.0 17:59:55 13° NNE 17:59:55 13° NNE 18:00:29 10° NNE
Cosmos 1633 2.3 17:56:57 10° S 18:00:15 63° E 18:03:36 10° NNE
Cosmos 1726 Rocket 3.8 17:56:01 10° NNW 18:00:21 73° W 18:04:39 10° S
Cosmos 1606 3.3 17:57:37 10° N 18:01:10 35° ENE 18:03:57 15° SE
Cosmos 2369 Rocket 4.1 17:59:23 10° NNW 18:02:13 14° NNE 18:04:30 11° NE
CZ-4 R/B 1.6 17:59:05 10° SE 18:02:59 45° ENE 18:06:51 10° N
IRIDIUM 106 4.2 17:57:56 10° N 18:03:11 69° E 18:08:22 10° SSE
Resurs 01 Rocket 3.6 18:08:22 13° NE 18:08:22 13° NE 18:09:35 10° NNE
In-Cosmos 22 Rocket 4.2 18:02:36 10° S 18:08:26 84° ESE 18:14:18 10° NNE
RESURS DK-1 3.5 18:05:12 10° NW 18:09:09 45° WSW 18:13:04 10° S
SL-16 R/B 2.4 18:04:34 10° SW 18:10:15 72° NW 18:15:58 10° NNE
SL-4 R/B 2.0 18:07:37 10° W 18:11:04 58° SSW 18:12:47 28° SE
COSMOS 2428 3.8 18:06:46 10° SSE 18:11:03 23° ESE 18:11:03 23° ESE
Cosmos 2333 4.4 18:09:44 10° S 18:15:06 48° ESE 18:18:59 19° NE
CSL-04 Rocket 4.2 18:12:11 21° ESE 18:15:07 36° ENE 18:20:03 10° N
Genesis I 3.3 18:12:33 10° SSW 18:16:26 55° SE 18:17:44 36° ENE
Cosmos 1626 Rocket 4.1 18:15:01 10° SSE 18:18:55 34° E 18:19:21 34° ENE
SKYMED 3 4.4 18:15:19 10° NNE 18:19:28 89° WNW 18:23:37 10° SSW
Cosmos 1943 Rocket 3.4 18:14:58 10° NNW 18:19:33 24° NE 18:20:45 22° NE
Cosmos 1980 Rocket 3.9 18:15:15 10° W 18:20:04 28° NW 18:24:56 10° NNE
Cosmos 1386 Rocket 4.3 18:18:39 10° N 18:24:43 83° E 18:30:46 10° SSE
Cosmos 1745 Rocket 3.9 18:19:47 10° N 18:26:05 79° E 18:32:16 10° SSE
Okean O Rocket 1.5 18:23:30 10° SSE 18:27:53 73° ENE 18:32:20 10° NNW
HJ-1C 3.9 18:29:57 35° NNW 18:29:57 35° NNW 18:31:38 10° NNW
Lacrosse 5 1.8 18:25:48 10° WSW 18:30:55 86° SSE 18:33:04 36° ENE
Feng Yun 1-1 Rocket 4.1 18:27:11 10° SSE 18:32:41 75° ENE 18:38:07 10° NNW
CZ-2C R/B 3.8 18:29:27 10° NNE 18:33:01 43° E 18:43:21 10° SSE
IGS 5A 3.4 18:31:17 29° SE 18:33:11 60° ENE 18:37:16 10° N
Okean-O 3.4 18:34:20 33° NE 18:34:20 33° NE 18:37:42 10° N
Cosmos 2322 4.0 18:30:13 10° S 18:35:34 42° ESE 18:37:02 36° ENE
DMSP B5D1-3 4.4 18:31:39 10° NNE 18:36:45 65° ESE 18:41:50 10° S
Okean 1-7 Rocket 3.7 18:34:03 10° S 18:38:20 51° E 18:39:09 44° ENE
Cosmos 2058 Rocket 4.1 18:39:03 10° NNW 18:43:18 48° W 18:47:33 10° SSW
Cosmos 1709 Rocket 3.8 18:38:08 10° N 18:44:18 72° ENE 18:50:24 10° SSE
IRS-1C Rocket 4.4 18:44:48 43° ENE 18:45:11 43° ENE 18:50:08 10° N
YAOGAN 1 3.6 18:42:12 10° S 18:46:22 47° W 18:50:34 10° NNW
Cosmos 1814 Rocket 4.1 18:44:46 10° NNW 18:50:08 80° WSW 18:54:29 16° SSE
Iridium 2 4.2 18:49:04 10° N 18:51:39 44° N 18:51:39 44° N
Gblst 52 Del rocket 4.1 18:47:34 10° WSW 18:53:07 76° S 18:54:30 51° ESE
Cosmos 1553 Rocket 4.3 18:47:23 10° SSW 18:53:27 66° WNW 18:59:38 10° N
ATLAS CENTAUR R/B 3.4 18:52:28 10° WNW 18:56:06 23° NNW 18:57:41 19° NNE
COSMOS 2455 4.5 18:52:13 10° WNW 18:57:16 27° NNW 19:01:02 15° NNE
Cosmos 1850 Rocket 4.0 18:54:29 10° SSW 18:59:42 82° WNW 19:02:49 25° NNE
SPOT 1/Viking Rocket 4.1 19:00:47 39° NE 19:00:47 39° NE 19:04:39 10° N
Resurs 1-3 3.7 19:01:52 59° NNE 19:01:52 59° NNE 19:05:36 10° N
Cosmos 2184 Rocket 4.5 18:55:40 10° N 19:00:59 39° NE 19:00:59 39° NE
Cosmos 2074 Rocket 4.4 18:56:37 10° N 19:02:07 41° ENE 19:02:07 41° ENE
Cosmos 883 Rocket 4.4 19:02:19 10° S 19:08:35 77° E 19:14:58 10° NNE
Cosmos 1741 Rocket 4.1 19:03:34 10° SSW 19:08:53 75° WNW 19:12:02 25° NNE
SJ-6B 3.1 19:10:09 67° NW 19:10:09 67° NW 19:13:48 10° NNW
USA 81 4.0 19:05:53 10° S 19:11:11 84° W 19:16:29 10° N
CZ-4B R/B 4.4 19:06:22 10° SSW 19:11:27 42° W 19:16:39 10° NNW
Lacrosse 5 rocket 3.9 19:11:00 10° WSW 19:12:40 13° SW 19:14:22 10° SSW
Cosmos-2242 3.2 19:09:00 10° NNW 19:12:36 62° NNW 19:12:36 62° NNW
Cosmos 2208 Rocket 3.8 19:11:20 10° NNW 19:16:33 88° ENE 19:16:55 78° SE
Lacrosse 4 Rocket 3.2 19:17:26 10° NNW 19:19:34 23° N 19:19:34 23° N
Cosmos 2219 Rocket 2.1 19:17:25 10° SSW 19:23:01 82° WNW 19:24:23 53° NNE
Cosmos 2360 Rocket 3.1 19:19:13 10° WSW 19:24:39 46° NW 19:28:12 21° NNE
Meteor 2-2 Rocket 4.1 19:20:25 10° NNW 19:26:06 86° ENE 19:26:37 75° SSE
Cosmos 1461 4.2 19:23:18 10° WSW 19:27:25 38° NNW 19:27:52 37° NNW
Cosmos 1570 Rocket 4.3 19:22:33 10° NNW 19:27:52 64° WSW 19:29:09 48° SSW
S3M 4.5 19:23:35 10° SSW 19:29:53 60° WNW 19:36:13 10° N
BlueWalker 3 3.6 19:29:13 10° W 19:31:36 32° WSW 19:31:36 32° WSW
Cosmos 2285 Rocket 4.4 19:27:12 10° NNW 19:32:29 47° NNE 19:32:29 47° NNE
Cosmos 2278 Rocket 2.2 19:27:54 10° NW 19:33:36 76° WSW 19:34:04 71° SSW
Cosmos 44 Rocket 3.7 19:29:01 10° SW 19:32:55 58° WSW 19:32:55 58° WSW
CZ-4 R/B 3.7 19:34:47 10° SW 19:38:04 23° W 19:41:19 10° NW
Cosmos 2322 Rocket 3.8 19:33:45 10° WSW 19:38:43 31° NW 19:42:10 17° N
ATLAS 5 CENTAUR R/B 3.2 19:34:30 10° NW 19:37:28 29° N 19:37:28 29° N
BREEZE-M DEB (TANK) 3.9 19:31:28 10° WSW 19:38:56 42° SSW 19:38:56 42° SSW
Cosmos 2333 Rocket 2.9 19:34:33 10° SW 19:40:04 51° NW 19:42:19 33° N
Resurs 01 Rocket 3.7 19:45:53 21° NNW 19:45:53 21° NNW 19:47:23 10° NNW
Cosmos 2369 Rocket 3.7 19:43:17 10° NNW 19:46:17 24° N 19:46:17 24° N
SL-4 R/B 4.5 19:47:00 10° W 19:48:06 16° WSW 19:48:06 16° WSW
Cosmos 2315 Rocket 4.3 19:47:21 10° SSW 19:53:40 64° WNW 20:00:02 10° N
COSMOS 2428 3.3 19:49:03 10° SW 19:53:08 49° SW 19:53:08 49° SW
SL-16 R/B 4.2 19:50:56 10° W 19:55:22 23° NNW 19:58:25 15° N
Cosmos 1943 Rocket 3.1 19:58:30 10° NNW 20:02:17 43° NNW 20:02:17 43° NNW
Okean O Rocket 4.4 20:01:54 10° SW 20:04:44 17° W 20:07:37 10° NW
Lacrosse 5 3.3 20:09:11 10° W 20:12:17 35° WNW 20:12:17 35° WNW
ATLAS CENTAUR R/B 4.5 20:32:55 10° NW 20:33:29 12° NNW 20:33:29 12° NNW
Cosmos 2219 Rocket 4.3 21:03:17 10° W 21:06:10 21° WNW 21:06:10 21° WNW
